Aérodrome :
LOGIN :

S'inscrire | Disclaimer

   EN    FR    IT 

 










Légende :    VFR   VFR Marginal   IFR   IFR Intensif   IFR Très Intensif
Visi : 
Plafond : 
>= 8 km
>= 3000ft
5 à 8 km
1000 à 3000 ft
1500m à 5 km
500 à 1000 ft
800 à 1500m
200 à 500 ft
< 800m
< 200 ft
Symboles :   Orages  Brouillard  Fortes neiges  Fortes précipitations  Vent > 20 kt
SIGMETs :   Divers  Orages  Givrage  Turbulence  Onde Orograph.  Cendres Volcan.







- Altitude de l'aérodrome : 1989 ft
- Code IATA : KLV


LKKV - Karlovy Vary

METARs EXPIRÉS :
  • 241430Z 26011KT 200V290 9999 FEW007 24/10 Q1015
  • 241400Z 25010KT 190V290 CAVOK 24/09 Q1015
  • 241330Z 26013G25KT 220V310 CAVOK 24/10 Q1015
  • 241300Z 25011KT 200V290 CAVOK 24/09 Q1015
  • 241230Z 26013KT 220V290 CAVOK 23/09 Q1015
  • 241200Z 24010KT 180V280 CAVOK 23/10 Q1015

TAF TAF LKKV
Valide du 23 à 18h jusqu'au 25 à 00h UTC


231700Z 2318/2500 28012KT CAVOK
BECMG 2318/2321 22004KT
BECMG 2407/2409 27010G20KT
Pas de NOTAMs connus pour ce terrain.



MET'MAP, la Météo Aéronautique d'un coup d'oeil ! - Copyright ORBIFLY Décembre 2007 - Disclaimer

ORBIFLY MET'MAP TEAM :

Programmation & Développement : Alexandra Zaïnal
Conception & Développement : Baudouin d'Aumeries
Co-Programmation & Développement : Marc-Olivier Méhu
Soutien technique & logistique : Manuel Goepfert

Contact : metmap@orbifly.com




SOURCES & CREDITS :

   NOAA